Change the Weather History Date:

Wednesday, April 24, 2013

  Actual Average Record
Temperature  
Mean Temperature 40 °F 51 °F  
Max Temperature 59 °F 65 °F 92 °F (2012)
Min Temperature 21 °F 38 °F 13 °F (1907)
Degree Days  
Heating Degree Days 25 14  
Month to date heating degree days 573 423  
Cooling Degree Days 0 0  
Month to date cooling degree days 0 0  
Year to date cooling degree days 0 0  
Moisture  
Dew Point 20 °F    
Average Humidity 52    
Maximum Humidity 84    
Minimum Humidity 19    
Precipitation  
Precipitation 0.00 in 0.07 in 1.49 in (2008)
Sea Level Pressure  
Sea Level Pressure 30.21 in    
Wind  
Wind Speed 9 mph (WNW)    
Max Wind Speed 29 mph    
Max Gust Speed 37 mph    
Visibility 10 miles    
Events      
T = Trace of Precipitation, MM = Missing Value Source: NWS Daily Summary

Daily Weather History Graph

Daily Weather History Graph

Search for Another Location

Airport or City:

Trip Planner

Search our weather history database for the weather conditions in past years. The results will help you decide how hot, cold, wet, or windy it might be!

Date:

Astronomy

Apr. 24, 2013 Rise Set
Actual Time 5:54 AM MDT 7:35 PM MDT
Civil Twilight 5:25 AM MDT 8:04 PM MDT
Nautical Twilight 4:50 AM MDT 8:39 PM MDT
Astronomical Twilight 4:13 AM MDT 9:17 PM MDT
Moon 6:40 PM MDT (4/24) 4:59 AM MDT (4/24)
Length of Visible Light 14h 38m
Length of Day
13h 40m
Waxing Gibbous, 98% of the Moon is Illuminated
Apr 24
Waxing Gibbous
Apr 25
Full
May 2
Last Quarter
May 9
New
May 17
First Quarter

Hourly Weather History & Observations

Time (MDT) Temp. Windchill Dew Point Humidity Pressure Visibility Wind Dir Wind Speed Gust Speed Precip Events Conditions
12:53 AM 27.0 °F 18.0 °F 21.0 °F 78% 30.26 in 10.0 mi West 9.2 mph - N/A   Clear
1:53 AM 24.1 °F 16.0 °F 19.9 °F 84% 30.25 in 10.0 mi West 6.9 mph - N/A   Clear
2:53 AM 24.1 °F 17.0 °F 19.0 °F 81% 30.22 in 10.0 mi West 5.8 mph - N/A   Clear
3:53 AM 24.8 °F 15.3 °F 19.4 °F 80% 30.14 in 10.0 mi West 9.2 mph - N/A   Clear
4:53 AM 23.0 °F 13.9 °F 18.0 °F 81% 30.20 in 10.0 mi West 8.1 mph - N/A   Clear
5:53 AM 21.9 °F 13.4 °F 18.0 °F 85% 30.19 in - WSW 6.9 mph - N/A   Unknown
6:53 AM 27.0 °F 18.7 °F 21.9 °F 81% 30.21 in 9.0 mi WSW 8.1 mph - N/A   Unknown
7:53 AM 32.0 °F 25.6 °F 25.0 °F 75% 30.23 in - NNW 6.9 mph - N/A   Unknown
8:53 AM 39.9 °F 35.1 °F 28.9 °F 65% 30.22 in 10.0 mi WNW 6.9 mph - N/A   Clear
9:53 AM 44.1 °F 38.6 °F 26.1 °F 49% 30.22 in 10.0 mi NW 10.4 mph - N/A   Clear
10:53 AM 51.1 °F - 19.0 °F 28% 30.20 in 10.0 mi NW 8.1 mph 18.4 mph N/A   Clear
11:53 AM 53.1 °F - 17.1 °F 24% 30.19 in 10.0 mi NW 10.4 mph 19.6 mph N/A   Clear
12:53 PM 55.9 °F - 17.1 °F 22% 30.17 in 10.0 mi WNW 15.0 mph 20.7 mph N/A   Partly Cloudy
1:53 PM 55.9 °F - 15.1 °F 20% 30.17 in 10.0 mi WNW 15.0 mph 26.5 mph N/A   Mostly Cloudy
2:53 PM 57.9 °F - 15.1 °F 19% 30.16 in 10.0 mi NW 21.9 mph 29.9 mph N/A   Mostly Cloudy
3:53 PM 57.0 °F - 18.0 °F 22% 30.17 in 10.0 mi NW 19.6 mph 36.8 mph N/A   Overcast
4:53 PM 53.1 °F - 18.0 °F 25% 30.19 in 10.0 mi NW 18.4 mph 24.2 mph N/A   Scattered Clouds
5:53 PM 54.0 °F - 19.9 °F 26% 30.19 in 10.0 mi NNW 17.3 mph 21.9 mph N/A   Partly Cloudy
6:53 PM 51.1 °F - 19.9 °F 29% 30.19 in 10.0 mi North 12.7 mph - N/A   Partly Cloudy
7:53 PM 43.0 °F 40.3 °F 21.0 °F 42% 30.22 in 10.0 mi North 4.6 mph - N/A   Clear
8:53 PM 41.0 °F 39.0 °F 21.0 °F 45% 30.25 in 10.0 mi NNE 3.5 mph - N/A   Clear
9:53 PM 37.0 °F - 23.0 °F 57% 30.27 in 10.0 mi Calm Calm - N/A   Clear
10:53 PM 36.0 °F - 23.0 °F 59% 30.25 in 10.0 mi Calm Calm - N/A   Clear
11:53 PM 30.9 °F - 23.0 °F 72% 30.25 in 10.0 mi Calm Calm - N/A   Clear